Location: Bolsward
(53.0655°N, 5.5318°E)
Time: 06:38:24
(UTC+00:00)

Daily predictions for brighter satellites

Satellite Brightness Start Highest point End
(mag) Time Altitude Azimuth Time Altitude Azimuth Time Altitude Azimuth
Cosmos 2279 Rocket 4.4 16:41:52 10° SSW 16:48:07 73° WNW 16:54:22 10° N
USA 281 3.4 16:43:13 10° SSE 16:49:48 83° WSW 16:56:26 10° NNW
Landsat 5 3.3 16:47:17 10° NNE 16:51:09 90° NW 16:55:07 10° SSW
Meteor 2-14 Rocket 4.4 16:46:12 10° N 16:52:24 71° ENE 16:58:30 10° SSE
Cosmos 2219 3.4 16:47:35 10° NNW 16:53:16 57° NE 16:58:56 10° SE
CZ-2C R/B 4.1 16:50:29 10° ESE 16:55:19 29° ENE 16:59:59 10° N
SMAP 3.2 16:51:00 10° SSE 16:55:40 87° WSW 17:00:22 10° NNW
Cosmos 1943 Rocket 3.7 16:52:57 10° WSW 16:57:54 32° NW 17:02:52 10° NNE
Cosmos 1758 Rocket 3.6 16:53:30 10° NNW 16:57:58 88° W 17:02:20 10° S
Cosmos 1726 Rocket 4.2 16:54:34 10° SSE 16:58:30 34° E 17:02:30 10° NNE
Meteor 2-21 4.5 16:52:53 10° N 16:59:07 82° E 17:05:13 10° SSE
NOSS 2-1 (E) 3.8 16:55:56 10° WSW 16:59:14 49° NW 17:03:07 10° NE
Cosmos 1328 4.1 16:55:35 10° NNW 16:59:32 73° W 17:03:28 10° S
USA 307 2.9 16:55:45 10° W 17:00:04 85° N 17:04:22 10° E
Cosmos 2082 4.4 16:56:28 10° NNW 17:01:46 36° NE 17:07:02 10° ESE
Cosmos 1726 4.0 16:59:40 10° SW 17:03:05 33° WNW 17:06:31 10° N
CZ-4B R/B 1.8 17:01:16 10° NNE 17:04:21 39° E 17:07:21 10° S
USA 308 2.9 17:00:35 10° WNW 17:04:55 87° NNE 17:09:12 10° ESE
Cosmos 2228 3.2 17:01:23 10° S 17:05:30 51° E 17:09:40 10° NNE
Cosmos 2278 Rocket 4.4 17:02:39 10° NW 17:05:43 15° NNW 17:08:47 10° NNE
YAOGAN 6 3.6 17:02:21 10° S 17:05:56 53° W 17:09:35 10° NNW
Cosmos 1939 Rocket 3.2 17:02:52 10° SE 17:06:36 42° ENE 17:10:19 10° N
ATLAS 5 CENTAUR R/B 2.8 17:03:49 10° W 17:07:54 38° NNW 17:12:37 10° NE
Cosmos 1452 Rocket 3.8 17:05:58 10° SSW 17:11:14 71° WNW 17:16:32 10° NNE
Helios 1A Rocket 3.4 17:10:00 10° SE 17:13:49 39° ENE 17:17:40 10° N
Cosmos 1606 Rocket 3.6 17:09:44 10° S 17:14:02 59° E 17:18:24 10° NNE
CZ-4B R/B 4.1 17:12:23 10° S 17:17:53 56° WSW 17:23:19 10° NNW
SKYMED 2 4.2 17:14:25 10° NNE 17:18:25 34° E 17:22:23 10° SSE
ARGOS 4.2 17:14:31 10° ESE 17:18:50 25° NE 17:23:11 10° N
Cosmos 1689 Rocket 3.2 17:17:18 10° NE 17:19:43 23° E 17:22:07 10° SSE
Okean-O 3.0 17:16:08 10° SE 17:20:18 42° ENE 17:24:30 10° N
Cosmos 1656 4.5 17:18:12 10° SSE 17:22:56 29° ESE 17:27:45 10° NE
Cosmos 1745 Rocket 4.4 17:17:08 10° N 17:23:04 41° ENE 17:29:01 10° SE
Cosmos 1400 Rocket 3.4 17:21:58 10° SSE 17:25:46 37° E 17:29:33 10° NNE
Cosmos 2227 Rocket 2.2 17:21:36 10° NNW 17:27:17 73° NE 17:32:56 10° SE
Cosmos 1908 4.3 17:24:01 10° SSW 17:27:44 47° WNW 17:31:31 10° N
Cosmos 2058 3.6 17:24:17 10° N 17:28:00 32° ENE 17:31:42 10° SE
Meteor 2-16 Rocket 4.4 17:22:00 10° N 17:28:09 87° E 17:34:15 10° S
H-2A R/B 2.8 17:23:24 10° SE 17:28:16 35° ENE 17:33:10 10° N
Cosmos 1892 3.1 17:25:43 10° N 17:29:26 42° ENE 17:33:08 10° SE
GEOS 3 Rocket 3.8 17:24:46 10° ESE 17:30:01 60° NE 17:35:22 10° NW
CZ-4 R/B 1.6 17:26:54 10° SE 17:30:34 43° ENE 17:34:15 10° N
Cosmos 2263 Rocket 3.4 17:27:56 10° NNW 17:32:36 25° NE 17:35:33 17° ENE
Cosmos 1408 3.3 17:30:18 10° N 17:33:36 31° ENE 17:36:54 10° SE
BREEZE-M DEB (TANK) 4.3 17:31:02 10° WSW 17:34:55 81° SSE 17:46:14 16° E
BREEZE-M R/B 4.3 17:25:34 10° W 17:35:02 56° S 17:37:08 18° ESE
Cosmos 1244 Rocket 4.5 17:29:29 10° N 17:35:44 83° E 17:42:00 10° SSE
CSL-04 Rocket 4.1 17:31:25 10° SE 17:36:33 41° ENE 17:41:40 10° N
NOSS 3-4 (A) 4.1 17:32:25 10° NW 17:38:51 49° NNE 17:44:11 18° E
NOSS 3-4 (C) 4.1 17:32:32 10° NW 17:38:57 49° NNE 17:44:16 18° E
CZ-4C R/B 3.5 17:33:34 10° NW 17:39:24 37° NNE 17:44:24 17° ENE
Cosmos 1953 Rocket 4.0 17:35:54 10° NNW 17:40:17 66° W 17:44:41 10° S
Cosmos 1300 2.7 17:40:17 10° S 17:44:05 86° W 17:47:56 10° N
SL-4 R/B 1.8 17:43:36 10° W 17:47:08 70° S 17:49:04 26° ESE
Cosmos 2058 Rocket 3.0 17:42:58 10° S 17:47:25 65° E 17:51:55 10° NNE
Cosmos 1697 Rocket 3.6 17:43:03 10° SSE 17:47:34 25° ESE 17:49:37 21° ENE
Cosmos 1331 Rocket 4.0 17:42:55 10° SSW 17:48:05 82° WNW 17:53:17 10° NNE
Cosmos 1346 Rocket 2.9 17:44:26 10° N 17:48:22 52° ENE 17:52:15 10° SSE
IRS-1C Rocket 4.3 17:44:10 10° SSE 17:49:26 77° WSW 17:54:45 10° NNW
CZ-2D R/B 3.1 17:45:42 10° SSE 17:49:30 86° ENE 17:53:20 10° NNW
SeaSat 1 2.8 17:46:27 19° ESE 17:49:41 44° NE 17:54:23 10° NNW
Cosmos 1825 2.8 17:47:08 10° N 17:50:36 32° ENE 17:51:37 28° ESE
USA 305 3.1 17:46:27 10° WNW 17:50:45 70° SSW 17:53:27 22° ESE
Cosmos 1709 Rocket 4.4 17:46:50 10° N 17:52:50 40° ENE 17:58:48 10° SE
Cosmos 44 3.1 17:50:58 10° SW 17:55:31 75° SE 17:59:04 18° NE
USA 215 3.4 17:51:39 21° E 17:56:15 68° N 18:02:45 10° WNW
Cosmos 1315 Rocket 3.7 17:53:31 10° SSE 17:56:19 28° ESE 17:56:19 28° ESE
USA 306 3.1 17:52:52 10° WNW 17:57:08 67° SSW 17:59:35 24° SE
SAR-Lupe-4 3.6 17:54:16 10° NNE 17:57:52 81° WNW 18:01:28 10° SSW
ERS-2 3.2 17:54:24 10° N 17:57:56 47° WNW 18:01:26 10° SW
SJ-11-01 4.4 17:54:50 10° SE 17:59:21 52° ENE 18:03:56 10° N
ATLAS 2AS CENTAUR R/B 3.2 17:53:28 10° NW 18:01:02 52° NNE 18:05:16 25° E
BREEZE-M R/B 3.8 17:57:19 10° W 18:01:05 60° S 18:05:18 23° ESE
Cosmos 968 Rocket 3.6 17:57:26 10° NNW 18:02:42 80° WSW 18:07:52 10° SSE
Cosmos 1340 3.3 17:59:33 10° NNW 18:03:16 57° W 18:06:58 10° S
SJ 16-02 3.5 18:02:37 10° NNE 18:04:08 13° NNE 18:04:08 13° NNE
COSMO-SKYMED 1 2.5 18:02:16 10° NNE 18:06:39 89° W 18:11:00 10° SSW
Cosmos 2297 Rocket 2.9 18:01:33 10° NW 18:07:06 55° WSW 18:12:36 10° S
MOS 1 Rocket 3.7 18:02:57 10° NNE 18:07:18 38° E 18:11:51 10° SSE
HJ-1C 3.6 18:07:27 47° ENE 18:07:33 47° ENE 18:10:49 10° N
H-2A R/B 4.4 18:04:46 10° N 18:08:06 23° WNW 18:11:22 10° WSW
Cosmos 1076 Rocket 3.5 18:04:10 10° N 18:08:22 58° ENE 18:11:35 17° SSE
COSMOS 2455 4.5 18:04:22 10° NW 18:08:58 22° N 18:12:00 16° NE
Cosmos 2369 Rocket 4.3 18:04:39 10° W 18:09:01 22° NNW 18:13:26 10° NNE
In-Cosmos 22 Rocket 4.4 18:04:02 10° NNW 18:09:22 68° W 18:14:45 10° S
Cosmos 1980 Rocket 4.0 18:06:12 10° SSE 18:07:19 14° SE 18:07:19 14° SE
Aureole 3 Rocket 3.5 18:08:49 10° SSW 18:13:01 80° WNW 18:18:59 10° N
Cosmos 2315 Rocket 4.4 18:11:08 10° SSE 18:16:41 36° E 18:22:14 10° NNE
CSL-04 Debris 4.1 18:11:28 10° SSE 18:16:54 79° ENE 18:22:24 10° NNW
S3M 3.9 18:11:01 10° S 18:17:02 64° E 18:23:10 10° NNE
Cosmos 1302 Rocket 4.0 18:13:48 10° SSW 18:19:05 85° WNW 18:24:26 10° NNE
Lacrosse 5 2.2 18:16:44 10° WNW 18:21:44 55° N 18:23:30 37° ENE
FALCON 9 DEB 3.0 18:18:26 10° W 18:21:52 72° SSW 18:22:07 67° SSE
Resurs 01 Rocket 3.9 18:24:28 11° NNE 18:24:28 11° NNE 18:24:51 10° NNE
TRACE 4.5 18:19:11 10° NNE 18:22:57 79° ESE 18:26:42 10° S
FALCON 9 DEB 3.6 18:20:48 10° SW 18:23:30 45° S 18:23:30 45° S
ERBS 3.0 18:20:47 10° WNW 18:24:00 42° N 18:24:02 42° N
Cosmos 292 Rocket 4.5 18:19:36 10° SW 18:24:19 54° WNW 18:29:06 10° NNE
YAOGAN 1 2.9 18:20:19 10° S 18:24:38 67° WSW 18:28:58 10° NNW
Aureole 3 3.9 18:23:46 10° SSW 18:26:41 41° WNW 18:29:33 10° N
FALCON 9 DEB 3.7 18:24:58 10° WSW 18:27:30 44° SSW 18:27:30 44° SSW
Cosmos 1417 Rocket 4.5 18:21:52 10° S 18:28:08 89° ESE 18:34:32 10° N
Cosmos 1812 Rocket 4.1 18:27:31 10° S 18:35:44 12° NNE 18:36:07 10° NNE
Cosmos 1455 3.0 18:28:48 10° S 18:31:13 38° S 18:31:13 38° S
Cosmos 1503 Rocket 4.1 18:27:47 10° NNW 18:33:01 75° WSW 18:37:11 16° SSE
Meteor 2-3 Rocket 4.1 18:28:50 10° N 18:34:17 43° ENE 18:34:44 42° E
CZ-2C R/B 3.6 18:29:04 10° S 18:34:49 66° WSW 18:40:25 10° NNW
CZ-4B R/B 4.2 18:34:04 10° NNW 18:36:23 18° WNW 18:38:38 10° WSW
DMSP B5D1-3 4.4 18:32:40 10° NNE 18:37:50 71° ESE 18:42:58 10° S
USA 307 3.7 18:35:53 10° WNW 18:39:58 43° SSW 18:40:52 38° S
FALCON 9 DEB 4.2 18:36:58 10° WSW 18:39:09 37° SW 18:39:09 37° SW
Cosmos 1354 Rocket 4.2 18:39:20 10° NNW 18:44:34 70° WSW 18:47:53 23° S
USA 308 3.8 18:40:44 10° WNW 18:44:47 41° SSW 18:45:31 38° S
Meteor 2-10 Rocket 3.5 18:40:47 10° SSW 18:46:04 82° WNW 18:51:13 10° NNE
Cosmos 2082 4.2 18:40:34 10° NW 18:46:12 59° WSW 18:50:45 16° S
Cosmos 1553 Rocket 4.4 18:40:24 10° SSW 18:46:42 65° WNW 18:52:57 10° N
Cosmos 2278 Rocket 4.3 18:49:33 10° NNW 18:52:24 14° NNE 18:53:39 13° NNE
ATLAS 5 CENTAUR R/B 3.4 18:49:47 10° WNW 18:53:47 26° N 18:55:00 24° NNE
SJ-6B 4.4 18:56:21 26° N 18:56:21 26° N 18:58:20 10° N
Meteor 2-15 Rocket 4.4 18:48:21 10° SSW 18:54:31 84° W 19:00:42 10° N
Cosmos 2151 3.4 18:52:48 10° N 18:56:04 53° N 18:56:04 53° N
Cosmos 1992 Rocket 3.8 18:52:51 10° SSW 18:58:04 88° ESE 18:59:48 44° NNE
ARGOS 3.3 18:54:41 19° S 18:58:38 73° WSW 19:04:06 10° NNW
SL-08 RB Rocket 3.6 19:00:38 81° NNW 19:00:38 81° NNW 19:04:57 10° NNW
Cosmos 2369 3.5 18:57:20 10° SSW 19:03:01 71° ESE 19:03:11 71° ESE
CZ-4 R/B 3.8 19:02:45 10° SW 19:05:48 22° W 19:08:51 10° NW
Cosmos 1844 Rocket 4.0 19:01:09 10° NNW 19:05:18 27° NNE 19:05:18 27° NNE
Cosmos 1656 4.1 19:00:42 10° SW 19:06:15 62° NW 19:10:04 21° NNE
Geosat 3.8 19:06:43 83° NE 19:06:55 87° ESE 19:11:58 10° SSW
Ariane Rocket 2.9 19:07:51 74° NNE 19:07:51 74° NNE 19:12:37 10° NNW
H-2A R/B 3.0 19:02:17 10° S 19:07:33 49° W 19:12:51 10° NNW
Cosmos 2227 Rocket 4.3 19:06:22 10° NW 19:10:50 24° WSW 19:15:17 10° SSW
Cosmos 220 Rocket 4.5 19:07:03 10° SW 19:10:52 59° W 19:10:52 59° W
Cosmos 2263 Rocket 2.1 19:11:39 10° NNW 19:17:16 82° NNE 19:17:16 82° NNE
Cosmos 1825 4.2 19:22:50 10° NNW 19:26:01 26° W 19:26:28 25° WSW
SL-4 R/B 4.0 19:23:03 10° W 19:24:38 22° WSW 19:24:38 22° WSW
SeaSat 1 3.5 19:26:15 37° SW 19:27:15 42° WSW 19:31:57 10° NW
CZ-4C R/B 2.8 19:22:17 10° NW 19:29:02 68° NE 19:29:36 66° ENE
NOSS 3-4 (A) 3.9 19:23:22 10° NW 19:30:12 71° SW 19:31:39 57° S
NOSS 3-4 (C) 3.9 19:23:29 10° NW 19:30:19 71° SW 19:31:43 58° S
Cosmos 1697 Rocket 2.8 19:25:28 10° SW 19:31:04 70° NW 19:31:26 68° NNW
Cosmos 2184 Rocket 4.1 19:25:36 10° N 19:31:04 64° NNE 19:31:04 64° NNE
DEBRIS 4.4 19:24:29 10° WSW 19:36:49 56° SSW 19:36:49 56° SSW
USA 215 3.2 19:39:00 73° S 19:39:17 75° SSW 19:45:52 10° WNW
NOSS 3-3 (A) 4.0 19:36:15 10° SW 19:41:47 77° WSW 19:41:47 77° WSW
NOSS 3-3 (C) 4.0 19:36:21 10° SW 19:41:53 76° WSW 19:41:53 76° WSW
SJ 16-02 3.6 19:39:51 10° NNW 19:41:07 18° NNW 19:41:07 18° NNW
Cosmos 2074 Rocket 4.2 19:45:52 10° NNW 19:51:04 63° NNW 19:51:04 63° NNW
ATLAS 2AS CENTAUR R/B 2.9 19:44:52 10° NW 19:52:23 67° SW 19:52:43 66° SW
Cosmos 1980 Rocket 4.3 19:48:04 10° SW 19:49:11 16° SW 19:49:11 16° SW
COSMOS 2455 4.1 19:51:01 10° NW 19:55:08 33° N 19:55:08 33° N
Resurs 01 Rocket 4.3 20:02:02 14° NNW 20:02:02 14° NNW 20:02:40 10° NNW
Lacrosse 5 3.4 19:59:57 10° WNW 20:02:41 33° WNW 20:02:41 33° WNW
Cosmos 2278 Rocket 4.4 20:33:37 10° NNW 20:35:28 18° N 20:35:28 18° N
ATLAS 5 CENTAUR R/B 4.3 20:34:53 10° NW 20:36:32 20° NNW 20:36:32 20° NNW
Cosmos 2263 Rocket 4.5 20:56:29 10° NW 20:58:58 19° WNW 20:58:58 19° WNW
CZ-4C R/B 4.2 21:10:53 10° NW 21:14:47 33° WNW 21:14:47 33° WNW
